Regional Weather Roundup
Issued by NWS Sioux Falls, SD

Home | Current Version | Previous Version | Text Only | Print | Product List | Glossary Off
Versions: 1 2 3 4 5 6 7 8 9 10 11 12 13 14 15 16 17 18 19 20 21 22 23 24 25 26 27 28 29 30 31 32 33 34 35 36 37 38 39 40 41 42 43 44 45 46 47 48 49 50

000
ASUS43 KFSD 302010
RWRFSD

WEATHER ROUNDUP FOR SE SOUTH DAKOTA/SW MINNESOTA/NW IOWA
NATIONAL WEATHER SERVICE SIOUX FALLS SD
300 PM CDT MON MAR 30 2015

NOTE: "FAIR" INDICATES FEW OR NO CLOUDS BELOW 12,000 FEET WITH NO
SIGNIFICANT WEATHER AND OR OBSTRUCTIONS TO VISIBILITY.


SDZ038>040-050-052>070-302100-
SOUTHEAST SOUTH DAKOTA

CITY           SKY/WX    TMP DP  RH WIND       PRES   REMARKS
CHAMBERLAIN    MOSUNNY   70  30  22 NW23G30   29.92F
HURON          MOSUNNY   74  29  19 NW25G36   29.84F
MADISON        FAIR      70  28  21 W21G38    29.84F
MITCHELL       PTSUNNY   74  30  19 NW23G32   29.87F
SIOUX FALLS    CLOUDY    75  25  15 W22G37    29.83F
WINNER         FAIR      73  27  18 NW26G36   29.96F
YANKTON        FAIR      75  28  17 W23G32    29.87F
$$

MNZ071-072-080-081-089-090-097-098-302100-
SOUTHWEST MINNESOTA

CITY           SKY/WX    TMP DP  RH WIND       PRES   REMARKS
FAIRMONT       FAIR      70  12  11 W18G28    29.81F
JACKSON        FAIR      70  19  14 W16G28    29.83F
LUVERNE        FAIR      72  23  16 W20G29    29.85F
MARSHALL       FAIR      72  28  20 NW24G33   29.79F
MONTEVIDEO     FAIR      73  30  20 N20G28    29.76F
PIPESTONE      FAIR      72  23  16 NW21G31   29.83F
REDWOOD FALLS  FAIR      73  28  18 NW14G25   29.77F
TRACY          FAIR      73  30  20 W15G24    29.81F
WINDOM         FAIR      72  25  17 W20G26    29.81F
WORTHINGTON    FAIR      70  27  19 W22G31    29.84F
$$

IAZ001>003-012>014-020>022-031-032-NEZ013-014-SDZ071-302100-
NORTHWEST IOWA

CITY           SKY/WX    TMP DP  RH WIND       PRES   REMARKS
CHEROKEE       FAIR      72  28  19 W13G24    29.87F
DENISON        FAIR      73  25  16 W23G33    29.89F
ESTHERVILLE    FAIR      70  27  20 W18G31    29.83F
LE MARS        FAIR      73  27  17 W13G21    29.88F
ORANGE CITY    FAIR      73  19  13 W17G25    29.87F
SHELDON        FAIR      72  28  20 W18G26    29.84F
SIOUX CITY     FAIR      78  24  13 W14G24    29.88F
SPENCER        FAIR      72  28  19 W21G32    29.85F
STORM LAKE     FAIR      72  27  18 W21G32    29.88F
$$

ABBREVIATIONS USED IN REMARKS
   TC - TEMPERATURE IN CELSIUS
  WCI - WIND CHILL INDEX
   HX - HEAT INDEX
  VSB - VISIBILITY




USA.gov is the U.S. government's official web portal to all federal, state and local government web resources and services.